Regional Weather Roundup
Issued by NWS Lake Charles, LA

Home | Current Version | Previous Version | Text Only | Print | Product List | Glossary On
Versions: 1 2 3 4 5 6 7 8 9 10 11 12 13 14 15 16 17 18 19 20 21 22 23 24 25 26 27 28 29 30 31 32 33 34 35 36 37 38 39 40 41 42 43 44 45 46 47 48 49 50
000
ASUS44 KLCH 221010
RWRLCH
RWRLCH
REGIONAL WEATHER ROUNDUP
NATIONAL WEATHER SERVICE LAKE CHARLES LA
500 AM CDT FRI MAY 22 2015

Note: "fair" indicates few or no clouds below 12,000 feet with no
significant weather and/or obstructions to visibility.


ACROSS SOUTHEAST TEXAS

CITY           SKY/WX    TMP DP  RH WIND       PRES   REMARKS
BEAUMONT       CLOUDY    64  61  90 N10       30.12R
BEAUMONT CITY  CLOUDY    62  60  92 NE7       30.13S
ORANGE         CLOUDY    63  60  90 N5        30.14S
JASPER         CLOUDY    62  59  91 NE6       30.18S
$$

ACROSS CENTRAL LOUISIANA

CITY           SKY/WX    TMP DP  RH WIND       PRES   REMARKS
LEESVILLE      PTCLDY    56  53  88 NE5       30.16R
FULLERTON        N/A     58  52  80 VRB3      30.14R
ALEXANDRIA INT CLOUDY    56  53  90 NE7       30.16R
ESLER FIELD    CLOUDY    58  53  84 CALM      30.18R
DERIDDER       CLOUDY    59  57  92 N3        30.17R
OAKDALE        CLOUDY    59  55  88 N6        30.16R
OPELOUSAS      CLOUDY    59  57  91 N8        30.14S
$$

ACROSS SOUTHWEST AND SOUTH CENTRAL LOUISIANA

CITY           SKY/WX    TMP DP  RH WIND       PRES   REMARKS
SULPHUR        CLOUDY    64  61  91 N8        30.13R
LAKE CHARLES   CLOUDY    63  59  87 NE10      30.12R
CHENNAULT INT  CLOUDY    62  58  89 NE8       30.13R
CAMERON PHI    CLOUDY    64  61  88 NE14      30.14R
DEQUINCY       CLOUDY    60  60 100 NE3       30.14R
JENNINGS       CLOUDY    61  58  91 N13       30.13R
LAFAYETTE      CLOUDY    63  61  93 N9        30.13R
NEW IBERIA     CLOUDY    66  63  90 N10       30.13R
ABBEVILLE      CLOUDY    63  62  97 N8        30.12R
PATTERSON      NOT AVBL
SALT POINT       N/A     71  68  90 VRB6      30.07R
$$

SELECTED SITES ACROSS THE REGION

CITY           SKY/WX    TMP DP  RH WIND       PRES   REMARKS
HOUSTON BUSH   CLOUDY    68  65  90 E10       30.10R
HOUSTON HOBBY  CLOUDY    71  67  87 NE10      30.08F
GALVESTON      CLOUDY    72  69  90 NE16      30.08F
COLLEGE STAT   CLOUDY    65  64  97 NE9       30.10R
CONROE         CLOUDY    66  63  90 E6        30.12R
HUNTSVILLE     CLOUDY    63  62  97 E3        30.12R FOG
LUFKIN         CLOUDY    62  58  86 E10       30.14R
SHREVEPORT     MOCLDY    55  51  86 E6        30.18S
MONROE         PTCLDY    52  50  93 NE5       30.22R
NATCHEZ MS     CLOUDY    57  52  82 NE5       30.18R
BATON ROUGE    CLOUDY    64  61  90 NE6       30.14R
N.O. INTL ARPT CLOUDY    71  66  84 NE13      30.09R
SLIDELL        CLOUDY    66  64  93 NE12      30.11R
$$

MARINE REPORTS

STATION/POSITION TIME  TEMP    WIND        PRES    VSBY  WAVE
                       AIR SEA DIR/SP/G                  HT/PER
                 (UTC) (F)     (DEG/KT/KT) (MB)    (MI)  (FT/S)
BUOY 30 S HIGH I 0950   75 80   50/ 17/ 21 1017.7R         4/ 5
SEA RIM ST PARK  1000   65      50/  8/ 10 1020.3R
PORT ARTHUR      0900      78   40/  3/  6 1019.8R
SABINE PASS N    0900   66 79   20/ 12/ 15 1019.9R
TEXAS POINT      NOT AVBL
CALCASIEU PASS   0900   65 77   40/ 12/ 15   N/A
LK CHARLES BEACH 0900   63 80              1019.8F
MARSH ISLAND     0900   71      30/ 12/ 15   N/A           0
FRESH WATER LOCK 0900   67 82   30/ 11/ 15 1018.5R
AMERADA PASS     0900   71 75   40/  3/  9 1017.7R
$$



USA.gov is the U.S. government's official web portal to all federal, state and local government web resources and services.